Weather History for Eindhoven, Netherlands

Change the Weather History Date:

Thursday, May 9, 2013

  Actual Average Record
Temperature  
Mean Temperature 56 °F -  
Max Temperature 63 °F 66 °F 78 °F (1998)
Min Temperature 49 °F 47 °F 37 °F (2005)
Degree Days  
Heating Degree Days 9    
Growing Degree Days 6 (Base 50)    
Moisture  
Dew Point 48 °F    
Average Humidity 77    
Maximum Humidity 100    
Minimum Humidity 31    
Precipitation  
Precipitation 0.00 in - - ()
Sea Level Pressure  
Sea Level Pressure 29.89 in    
Wind  
Wind Speed 8 mph ()    
Max Wind Speed 18 mph    
Max Gust Speed 24 mph    
Visibility 6.1 miles    
Events Rain    
Averages and records for this station are not official NWS values.
T = Trace of Precipitation, MM = Missing Value Source: Averaged Metar Reports

Daily Weather History Graph

Daily Weather History Graph

Search for Another Location

Airport:

Trip Planner

Search our weather history database for the weather conditions in past years. The results will help you decide how hot, cold, wet, or windy it might be!

Date:

Astronomy

May. 09, 2013 Rise Set
Actual Time 5:56 AM CEST 9:14 PM CEST
Civil Twilight 5:16 AM CEST 9:54 PM CEST
Nautical Twilight 4:23 AM CEST 10:48 PM CEST
Astronomical Twilight 3:11 AM CEST 12:01 AM CEST
Moon 5:36 AM CEST (5/9) 8:53 PM CEST (5/9)
Length of Visible Light 16h 38m
Length of Day
15h 18m
Waning Crescent, 0% of the Moon is Illuminated
May 9
Waning Crescent
May 10
New
May 18
First Quarter
May 25
Full
May 31
Last Quarter

Hourly Weather History & Observations

Time (CEST) Temp. Dew Point Humidity Pressure Visibility Wind Dir Wind Speed Gust Speed Precip Events Conditions
12:25 AM 55.4 °F 53.6 °F 94% 29.83 in 6.2 mi SW 6.9 mph - N/A   Overcast
12:55 AM 55.4 °F 53.6 °F 94% 29.83 in 6.2 mi SSW 5.8 mph - N/A   Mostly Cloudy
1:25 AM 53.6 °F 53.6 °F 100% 29.86 in 6.2 mi SSW 6.9 mph - N/A   Unknown
1:55 AM 53.6 °F 53.6 °F 100% 29.86 in 6.2 mi SSW 5.8 mph - N/A   Unknown
2:00 AM 54 °F 53 °F 97% 29.87 in 5 mi SSW 6.7 mph - -   Mist
2:02 AM 53.6 °F 53.6 °F 100% 29.86 in 4.3 mi SSW 5.8 mph - N/A   Mist
2:06 AM 53.6 °F 53.6 °F 100% 29.86 in 5.0 mi SSW 5.8 mph - N/A   Mist
2:10 AM 53.6 °F 53.6 °F 100% 29.86 in 4.3 mi South 5.8 mph - N/A   Mist
2:25 AM 53.6 °F 53.6 °F 100% 29.86 in 3.7 mi South 5.8 mph - N/A   Mist
2:55 AM 53.6 °F 53.6 °F 100% 29.86 in 3.7 mi South 5.8 mph - N/A   Partly Cloudy
3:10 AM 53.6 °F 53.6 °F 100% 29.86 in - SSW 4.6 mph - N/A   Partly Cloudy
3:14 AM 53.6 °F 53.6 °F 100% 29.86 in 3.1 mi SSW 4.6 mph - N/A   Mostly Cloudy
3:25 AM 53.6 °F 53.6 °F 100% 29.86 in 3.1 mi SW 5.8 mph - N/A   Mostly Cloudy
3:55 AM 53.6 °F 53.6 °F 100% 29.86 in 3.7 mi SSW 5.8 mph - N/A   Overcast
4:11 AM 55.4 °F 53.6 °F 94% 29.86 in - SSW 5.8 mph - N/A   Mostly Cloudy
4:14 AM 55.4 °F 53.6 °F 94% 29.86 in 3.1 mi SSW 5.8 mph - N/A   Overcast
4:19 AM 55.4 °F 53.6 °F 94% 29.86 in - SSW 5.8 mph - N/A   Overcast
4:25 AM 55.4 °F 55.4 °F 100% 29.86 in - SSW 5.8 mph - N/A   Overcast
4:36 AM 55.4 °F 55.4 °F 100% 29.86 in 3.1 mi SSW 5.8 mph - N/A   Overcast
4:40 AM 55.4 °F 55.4 °F 100% 29.86 in - SSW 6.9 mph - N/A   Overcast
4:56 AM 55.4 °F 55.4 °F 100% 29.86 in 3.1 mi SW 8.1 mph - N/A   Overcast
5:00 AM 55 °F 55 °F 100% 29.87 in 3 mi SW 8.9 mph - -   Mist
5:03 AM 55.4 °F 55.4 °F 100% 29.86 in 3.1 mi SW 8.1 mph - N/A   Overcast
5:07 AM 55.4 °F 55.4 °F 100% 29.86 in 3.7 mi SW 8.1 mph - N/A   Overcast
5:20 AM 55.4 °F 55.4 °F 100% 29.86 in 3.1 mi SW 6.9 mph - N/A   Overcast
5:25 AM 55.4 °F 55.4 °F 100% 29.86 in 3.1 mi SW 8.1 mph - N/A   Overcast
5:29 AM 55.4 °F 55.4 °F 100% 29.86 in 3.1 mi SW 8.1 mph - N/A Rain Light Rain
5:37 AM 55.4 °F 55.4 °F 100% 29.86 in 3.1 mi SW 9.2 mph - N/A Rain Light Rain
5:46 AM 55.4 °F 53.6 °F 94% 29.86 in 5.0 mi SW 9.2 mph - N/A Rain Light Rain
5:55 AM 55.4 °F 53.6 °F 94% 29.86 in 5.6 mi SW 9.2 mph - N/A   Mostly Cloudy
6:05 AM 55.4 °F 53.6 °F 94% 29.86 in 6.2 mi WSW 10.4 mph - N/A   Overcast
6:13 AM 55.4 °F 51.8 °F 88% 29.89 in 6.2 mi WSW 8.1 mph - N/A   Mostly Cloudy
6:25 AM 55.4 °F 51.8 °F 88% 29.89 in 6.2 mi WSW 8.1 mph - N/A Rain Light Rain
6:40 AM 53.6 °F 51.8 °F 94% 29.89 in 6.2 mi WSW 6.9 mph - N/A   Light Drizzle
6:44 AM 53.6 °F 51.8 °F 94% 29.89 in 6.2 mi WSW 6.9 mph - N/A   Overcast
6:46 AM 53.6 °F 51.8 °F 94% 29.89 in 6.2 mi WSW 8.1 mph - N/A   Mostly Cloudy
6:48 AM 53.6 °F 51.8 °F 94% 29.89 in 6.2 mi WSW 8.1 mph - N/A   Mostly Cloudy
6:55 AM 53.6 °F 51.8 °F 94% 29.89 in 6.2 mi West 8.1 mph - N/A   Overcast
7:09 AM 53.6 °F 51.8 °F 94% 29.89 in 4.3 mi WSW 8.1 mph - N/A Rain Rain
7:25 AM 53.6 °F 51.8 °F 94% 29.89 in 6.2 mi WSW 6.9 mph - N/A   Mostly Cloudy
7:31 AM 53.6 °F 51.8 °F 94% 29.89 in 6.2 mi SW 8.1 mph - N/A   Mostly Cloudy
7:35 AM 53.6 °F 51.8 °F 94% 29.89 in 6.2 mi SW 8.1 mph - N/A   Mostly Cloudy
7:51 AM 55.4 °F 51.8 °F 88% 29.89 in 6.2 mi SW 8.1 mph - N/A   Scattered Clouds
7:55 AM 55.4 °F 51.8 °F 88% 29.92 in 6.2 mi SW 9.2 mph - N/A   Mostly Cloudy
8:00 AM 54 °F 50 °F 82% 29.93 in 19 mi SW 11.2 mph - - Rain Rain
8:01 AM 55.4 °F 50.0 °F 82% 29.92 in 6.2 mi SW 9.2 mph - N/A   Mostly Cloudy
8:25 AM 55.4 °F 48.2 °F 77% 29.92 in 6.2 mi WSW 13.8 mph - N/A   Mostly Cloudy
8:45 AM 53.6 °F 48.2 °F 82% 29.92 in 6.2 mi WSW 13.8 mph - N/A   Mostly Cloudy
8:49 AM 53.6 °F 48.2 °F 82% 29.92 in 6.2 mi WSW 15.0 mph - N/A   Mostly Cloudy
8:55 AM 55.4 °F 50.0 °F 82% 29.92 in 6.2 mi WSW 15.0 mph - N/A   Mostly Cloudy
9:10 AM 55.4 °F 48.2 °F 77% 29.92 in 6.2 mi WSW 12.7 mph - N/A   Overcast
9:21 AM 55.4 °F 48.2 °F 77% 29.92 in 6.2 mi WSW 12.7 mph - N/A   Mostly Cloudy
9:25 AM 55.4 °F 48.2 °F 77% 29.92 in 6.2 mi WSW 12.7 mph - N/A   Mostly Cloudy
9:27 AM 55.4 °F 50.0 °F 82% 29.92 in 6.2 mi WSW 12.7 mph - N/A   Mostly Cloudy
9:34 AM 55.4 °F 50.0 °F 82% 29.92 in 6.2 mi WSW 10.4 mph - N/A   Mostly Cloudy
9:55 AM 57.2 °F 48.2 °F 72% 29.92 in 6.2 mi SW 11.5 mph - N/A   Scattered Clouds
10:09 AM 55.4 °F 44.6 °F 67% 29.92 in 6.2 mi WSW 12.7 mph - N/A   Scattered Clouds
10:25 AM 57.2 °F 44.6 °F 63% 29.95 in 6.2 mi SW 12.7 mph - N/A   Mostly Cloudy
10:29 AM 57.2 °F 44.6 °F 63% 29.92 in 6.2 mi WSW 13.8 mph - N/A   Mostly Cloudy
10:55 AM 57.2 °F 46.4 °F 67% 29.92 in 6.2 mi SW 12.7 mph - N/A   Mostly Cloudy
11:00 AM 58 °F 43 °F 46% 29.94 in 17 mi SW 13.4 mph - -   Partly Cloudy
11:25 AM 59.0 °F 42.8 °F 55% 29.92 in 6.2 mi WSW 12.7 mph - N/A   Partly Cloudy
11:30 AM 59.0 °F 42.8 °F 55% 29.92 in 6.2 mi SW 13.8 mph - N/A   Partly Cloudy
11:55 AM 59.0 °F 39.2 °F 48% 29.92 in 6.2 mi SW 16.1 mph - N/A   Partly Cloudy
12:25 PM 60.8 °F 41.0 °F 48% 29.92 in 6.2 mi SW 16.1 mph - N/A   Unknown
12:55 PM 60.8 °F 42.8 °F 52% 29.92 in 6.2 mi SW 16.1 mph - N/A   Mostly Cloudy
1:25 PM 60.8 °F 41.0 °F 48% 29.92 in 6.2 mi SW 18.4 mph - N/A   Scattered Clouds
1:35 PM 59.0 °F 41.0 °F 51% 29.92 in 6.2 mi SW 17.3 mph - N/A   Scattered Clouds
1:55 PM 59.0 °F 41.0 °F 51% 29.92 in 6.2 mi WSW 15.0 mph - N/A   Mostly Cloudy
2:00 PM 60 °F 41 °F 37% 29.94 in 19 mi SW 15.7 mph - -   Partly Cloudy
2:25 PM 59.0 °F 41.0 °F 51% 29.92 in 6.2 mi WSW 15.0 mph - N/A   Overcast
2:55 PM 62.6 °F 42.8 °F 48% 29.92 in 6.2 mi WSW 13.8 mph - N/A   Mostly Cloudy
3:25 PM 62.6 °F 41.0 °F 45% 29.89 in 6.2 mi SW 12.7 mph 24.2 mph N/A   Mostly Cloudy
3:55 PM 60.8 °F 41.0 °F 48% 29.89 in 6.2 mi SW 13.8 mph - N/A   Overcast
4:25 PM 62.6 °F 41.0 °F 45% 29.89 in 6.2 mi SW 13.8 mph - N/A   Mostly Cloudy
4:55 PM 62.6 °F 42.8 °F 48% 29.89 in 6.2 mi SW 13.8 mph - N/A   Overcast
5:00 PM 62 °F 39 °F 31% 29.89 in 18 mi SW 15.7 mph - -   Mostly Cloudy
5:25 PM 62.6 °F 39.2 °F 42% 29.89 in 6.2 mi WSW 18.4 mph - N/A   Mostly Cloudy
5:55 PM 60.8 °F 39.2 °F 45% 29.86 in 6.2 mi SW 16.1 mph - N/A   Mostly Cloudy
6:25 PM 60.8 °F 41.0 °F 48% 29.86 in 6.2 mi WSW 11.5 mph - N/A   Mostly Cloudy
6:55 PM 60.8 °F 39.2 °F 45% 29.86 in 6.2 mi WSW 16.1 mph - N/A   Partly Cloudy
7:25 PM 60.8 °F 41.0 °F 48% 29.86 in 6.2 mi WSW 13.8 mph - N/A   Scattered Clouds
7:55 PM 59.0 °F 39.2 °F 48% 29.86 in 6.2 mi WSW 16.1 mph - N/A   Mostly Cloudy
8:00 PM 59 °F 40 °F 37% 29.87 in 25 mi WSW 13.4 mph - -   Partly Cloudy
8:25 PM 57.2 °F 39.2 °F 51% 29.86 in 6.2 mi WSW 11.5 mph - N/A   Scattered Clouds
8:55 PM 55.4 °F 39.2 °F 54% 29.86 in 6.2 mi SSW 9.2 mph - N/A   Scattered Clouds
9:25 PM 55.4 °F 41.0 °F 58% 29.86 in 6.2 mi SSW 5.8 mph - N/A   Overcast
9:55 PM 55.4 °F 41.0 °F 58% 29.89 in 6.2 mi South 6.9 mph - N/A   Overcast
10:25 PM 51.8 °F 41.0 °F 67% 29.89 in 6.2 mi South 5.8 mph - N/A   Mostly Cloudy
10:55 PM 50.0 °F 41.0 °F 71% 29.86 in 6.2 mi South 5.8 mph - N/A   Unknown
11:00 PM 49 °F 41 °F 65% 29.88 in 28 mi South 6.7 mph - -  
11:25 PM 50.0 °F 41.0 °F 71% 29.86 in 6.2 mi South 6.9 mph - N/A   Unknown
11:55 PM 50.0 °F 41.0 °F 71% 29.86 in 6.2 mi South 8.1 mph - N/A   Unknown